SL-14 DEB, 45318

Orbit data source: Space-Track

SL-14 DEB, 45318 is space debris in LEO originally from a launch on Thu, 15 Aug 1991 UTC launched from the Plesetsk Missile And Space Complex (PKMTR). Debris objects in space refer to the collection of defunct objects orbiting the Earth. Examples of debris include non-operational satellites, rocket bodies, and fragments generated from explosions, collisions, or faulty payload assembly.

Loading next visibility...
Identifier
45318, 1991-056BG
Orbit
LEO
Country
Flag of CISCIS
Related business
Manufacturer
Unknown
Mission
Spacecraft
Bus & Motor
Unknown
Mass
Unknown
Launch date (UTC)
1991-08-15 (35 years ago)
Launch vehicle
Unknown
Launch site
Plesetsk Missile And Space Complex (PKMTR)
Object type
Payload
Rocket body
Debris
Shape & HBR
Unknown shape, 0.2 m
Radar Cross Section
Medium (>0.1 m² and <1 m²)

Expand to show TLE details & history
Last TLE update: 19 hours ago

TLE from 19 hours ago
0 SL-14 DEB
1 45318U 91056BG  26174.58987950  .00000307  00000-0  73479-3 0  9996
2 45318  82.5691 132.5910 0014805  57.1862 303.0685 13.19729214304418
Epoch: 2026-06-23T14:09Z
TLE epoch observation values (Epoch: 2026-06-23T14:09:25.588Z)
Latitude
-0.00009°
Longitude
8.4751°
Altitude
1,182.466 km
Speed
7.265 km/s
True Right ascension
08h 50m 21s
True Declination
0° 00' 00"
Sunlit
Object was in daylight at epoch
Visualization orbit readout
Latitude
Unknown
Longitude
Unknown
Altitude
Unknown
Speed
Unknown
Apparent Right ascension
Unknown
Apparent Declination
Unknown
Sunlit
N/A
Visualization observer readout
Local Sidereal Time
20:19:03
Azimuth
Unknown
Elevation
Unknown
Doppler factor
Unknown
Orbital elements
Apogee altitude
1,194.189 km
Perigee altitude
1,171.8 km
Semi-major axis
7,561.132 km
Eccentricity
0.00148
Inclination
82.5691°
RAAN
132.591°
Arg. of periapsis
57.1862°
True anomaly
302.92618°
Mean anomaly
303.0685°
Eccentric anomaly
302.99736°
Mean motion
3.30113 °/min
Orbital period
109.05 mins
BSTAR
0.00073479
Loading maneuver chart data...
Computing Atmospheric mass density...
Loading historical data...
Loading historical data...
Loading historical data...
Loading historical data...
Loading historical data...
Loading historical data...
Loading historical data...

Documentation

Showing up to 5 results
|